Weather History for Lufkin, TX

Change the Weather History Date:

Sunday, May 27, 2012

  Actual Average Record
Temperature  
Mean Temperature 80 °F 77 °F  
Max Temperature 94 °F 87 °F 98 °F (1958)
Min Temperature 66 °F 66 °F 48 °F (1988)
Degree Days  
Heating Degree Days 0 0  
Month to date heating degree days 0 1  
Since 1 July heating degree days 1414 1914  
Cooling Degree Days 15 12  
Month to date cooling degree days 313 242  
Year to date cooling degree days 712 418  
Growing Degree Days 30 (Base 50)    
Moisture  
Dew Point 66 °F    
Average Humidity 65    
Maximum Humidity 93    
Minimum Humidity 36    
Precipitation  
Precipitation 0.00 in 0.17 in 3.11 in (1948)
Month to date precipitation 2.93 3.98  
Year to date precipitation 22.37 18.86  
Snow  
Snow 0.00 in - - ()
Month to date snowfall 0.0  
Since 1 July snowfall 0.0  
Snow Depth 0.00 in    
Sea Level Pressure  
Sea Level Pressure 29.98 in    
Wind  
Wind Speed 6 mph (SE)    
Max Wind Speed 17 mph    
Max Gust Speed 24 mph    
Visibility 6 miles    
Events Fog    
T = Trace of Precipitation, MM = Missing Value Source: NWS Daily Summary

Daily Weather History Graph

Daily Weather History Graph

Search for Another Location

Airport:

Trip Planner

Search our weather history database for the weather conditions in past years. The results will help you decide how hot, cold, wet, or windy it might be!

Date:

Astronomy

May. 27, 2012 Rise Set
Actual Time 6:16 AM CDT 8:15 PM CDT
Civil Twilight 5:49 AM CDT 8:43 PM CDT
Nautical Twilight 5:16 AM CDT 9:16 PM CDT
Astronomical Twilight 4:41 AM CDT 9:51 PM CDT
Moon 12:09 PM CDT (5/27) 12:35 AM CDT (5/27)
Length of Visible Light 14h 53m
Length of Day
13h 59m
Waxing Crescent, 38% of the Moon is Illuminated
May 27
Waxing Crescent
May 28
First Quarter
Jun 4
Full
Jun 11
Last Quarter
Jun 19
New

Hourly Weather History & Observations

Time (CDT) Temp. Heat Index Dew Point Humidity Pressure Visibility Wind Dir Wind Speed Gust Speed Precip Events Conditions
12:53 AM 71.1 °F - 66.0 °F 84% 29.98 in 9.0 mi SSE 4.6 mph - N/A   Clear
1:53 AM 71.1 °F - 66.0 °F 84% 29.97 in 9.0 mi SSE 3.5 mph - N/A   Clear
2:53 AM 71.1 °F - 66.0 °F 84% 29.98 in 8.0 mi South 3.5 mph - N/A   Clear
3:53 AM 68.0 °F - 64.9 °F 90% 29.99 in 5.0 mi Calm Calm - N/A   Clear
4:53 AM 66.9 °F - 64.0 °F 90% 29.99 in 4.0 mi Calm Calm - N/A   Partly Cloudy
5:40 AM 66.2 °F - 64.4 °F 94% 30.01 in 2.5 mi East 5.8 mph - N/A   Partly Cloudy
5:53 AM 66.0 °F - 64.0 °F 93% 30.00 in 3.0 mi Calm Calm - N/A   Mostly Cloudy
6:27 AM 68.0 °F - 66.2 °F 94% 30.01 in 1.8 mi ENE 3.5 mph - N/A   Overcast
6:35 AM 69.8 °F - 66.2 °F 88% 30.01 in 0.2 mi East 4.6 mph - N/A Fog Fog
6:53 AM 69.1 °F - 66.9 °F 93% 30.00 in 0.2 mi East 3.5 mph - N/A Fog Fog
7:03 AM 69.8 °F - 68.0 °F 94% 30.01 in 0.2 mi East 3.5 mph - N/A Fog Fog
7:38 AM 71.6 °F - 69.8 °F 94% 30.02 in 0.2 mi Calm Calm - N/A Fog Fog
7:53 AM 71.6 °F - 69.8 °F 94% 30.03 in 0.2 mi Calm Calm - N/A Fog Fog
8:26 AM 71.6 °F - 69.8 °F 94% 30.03 in 0.8 mi Calm Calm - N/A   Overcast
8:34 AM 71.6 °F - 69.8 °F 94% 30.03 in 1.8 mi Calm Calm - N/A   Overcast
8:38 AM 73.4 °F - 69.8 °F 88% 30.04 in 3.0 mi Calm Calm - N/A   Overcast
8:53 AM 73.0 °F - 70.0 °F 90% 30.03 in 6.0 mi Calm Calm - N/A   Mostly Cloudy
9:10 AM 77.0 °F - 71.6 °F 83% 30.04 in 8.0 mi ESE 3.5 mph - N/A   Partly Cloudy
10:53 AM 84.0 °F 88.4 °F 70.0 °F 63% 30.01 in 10.0 mi SSE 6.9 mph - N/A   Partly Cloudy
11:53 AM 87.1 °F 89.2 °F 66.0 °F 49% 30.00 in 10.0 mi SSE 13.8 mph 18.4 mph N/A   Scattered Clouds
12:53 PM 89.1 °F 91.3 °F 66.0 °F 46% 29.97 in 10.0 mi South 12.7 mph - N/A   Partly Cloudy
1:53 PM 93.0 °F 95.0 °F 64.9 °F 39% 29.95 in 10.0 mi South 9.2 mph 18.4 mph N/A   Partly Cloudy
3:53 PM 93.0 °F 94.6 °F 64.0 °F 38% 29.91 in 10.0 mi South 9.2 mph 18.4 mph N/A   Partly Cloudy
4:53 PM 93.0 °F 93.8 °F 62.1 °F 36% 29.90 in 10.0 mi SSW 9.2 mph 19.6 mph N/A   Partly Cloudy
5:53 PM 91.9 °F 91.5 °F 60.1 °F 34% 29.90 in 10.0 mi South 11.5 mph 20.7 mph N/A   Scattered Clouds
6:53 PM 89.1 °F 88.8 °F 60.1 °F 38% 29.89 in 10.0 mi South 10.4 mph 18.4 mph N/A   Clear
7:53 PM 84.9 °F 85.0 °F 61.0 °F 44% 29.90 in 10.0 mi SSE 8.1 mph - N/A   Clear
8:53 PM 80.1 °F 81.5 °F 63.0 °F 56% 29.91 in 10.0 mi SE 3.5 mph - N/A   Clear
9:53 PM 75.9 °F - 64.0 °F 67% 29.92 in 10.0 mi SE 3.5 mph - N/A   Clear
10:53 PM 73.9 °F - 64.0 °F 71% 29.93 in 10.0 mi SE 3.5 mph - N/A   Clear
11:53 PM 72.0 °F - 64.0 °F 76% 29.92 in 10.0 mi SSE 4.6 mph - N/A   Clear